Regional Weather Roundup
Issued by NWS

Home | Current Version | Previous Version | Graphics & Text | Print | Product List | Glossary On
Versions: 1 2 3 4 5 6 7 8 9 10 11 12 13 14 15 16 17 18 19 20 21 22 23 24 25 26 27 28 29 30 31 32 33 34 35 36 37 38 39 40 41 42 43 44 45 46 47 48 49 50
000
ASUS45 KABQ 221601
RWRNM
WEATHER ROUNDUP FOR NEW MEXICO
NATIONAL WEATHER SERVICE ALBUQUERQUE NM
1000 AM MDT TUE APR 22 2014

NOTE: "FAIR" MEANS FEW OR NO CLOUDS BELOW 12,000 FEET AGL WITH NO
       SIGNIFICANT WEATHER OR OBSTRUCTIONS TO VISION.

      THIS PRODUCT IS RELEASED AS TWO VERSIONS.  ONE VERSION NEAR
      THE TOP OF THE HOUR CONTAINING PRELIMINARY DATA FROM ALBUQUERQUE
      AND OTHER STATIONS.  A FINAL VERSION WITH ADDITIONAL DATA IS
      ISSUED ABOUT 10 MINUTES AFTER THE HOUR.

NMZ501-503-504-510>518-221700-
NORTHWEST PLATEAU/NORTHCENTRAL MOUNTAINS

CITY           SKY/WX    TMP DP  RH WIND       PRES   REMARKS
FARMINGTON     SUNNY     66  34  30 SE7       30.07S
LOS ALAMOS     MOSUNNY   56  40  54 SE9       30.24F
SANTA FE       MOSUNNY   63  39  41 SE20G25   30.19F
TAOS           MOSUNNY   55  37  50 CALM      30.24F
ANGEL FIRE     FAIR      55  40  57 S13       30.25F

$$
NMZ402-403-502-505>509-221700-
WESTCENTRAL MOUNTAINS/SOUTHWEST MOUNTAINS

CITY           SKY/WX    TMP DP  RH WIND       PRES   REMARKS
GALLUP         SUNNY     68  31  25 SW13      30.13F
SILVER CITY    SUNNY     70  32  24 SE14      30.16F

$$
NMZ407-409-411-412-221700-
SOUTHERN DESERTS

CITY           SKY/WX    TMP DP  RH WIND       PRES   REMARKS
DEMING         SUNNY     76  37  24 E15G21    30.08F
LAS CRUCES     SUNNY     74  41  29 SE13G20   30.12F
HOLLOMAN AFB   SUNNY     72  40  31 SE6       30.11F
T OR C         SUNNY     71  34  25 CALM      30.13S

$$
NMZ519>523-221700-
CENTRAL VALLEYS/CENTRAL HIGHLANDS

CITY           SKY/WX    TMP DP  RH WIND       PRES   REMARKS
ALBUQUERQUE    MOSUNNY   66  38  35 SW7       30.15F
DOUBLE EAGLE   MOSUNNY   64  37  36 SE7       30.18S
CLINES CORNERS MOSUNNY   59  42  53 S16       30.22F
BELEN          FAIR      70  36  29 S15       30.14S
SOCORRO        NOT AVBL

$$
NMZ524>526-539-540-221700-
SOUTHCENTRAL MOUNTAINS

CITY           SKY/WX    TMP DP  RH WIND       PRES   REMARKS
RUIDOSO        NOT AVBL

$$
NMZ527>531-221700-
NORTHEAST HIGHLANDS/NORTHEAST PLAINS

CITY           SKY/WX    TMP DP  RH WIND       PRES   REMARKS
LAS VEGAS      MOSUNNY   56  43  61 S26       30.23F
RATON          MOSUNNY   60  45  57 S20G29    30.17F
CLAYTON        SUNNY     65  44  46 SW28G36   30.15F

$$
NMZ532>537-221700-
EASTCENTRAL PLAINS

CITY           SKY/WX    TMP DP  RH WIND       PRES   REMARKS
TUCUMCARI      SUNNY     71  48  43 SW16G22   30.15F
CANNON AFB     NOT AVBL
CLOVIS AIRPORT SUNNY     66  48  52 S17       30.23S

$$
NMZ028-029-538-221700-
SOUTHEAST PLAINS

CITY           SKY/WX    TMP DP  RH WIND       PRES   REMARKS
ROSWELL        SUNNY     71  49  45 S17       30.15F
CARLSBAD       SUNNY     72  54  53 SE13      30.13F
HOBBS          SUNNY     72  45  37 SE15G21   30.18S


$$



USA.gov is the U.S. government's official web portal to all federal, state and local government web resources and services.